Regional Weather Roundup
Issued by NWS

Home | Current Version | Previous Version | Text Only | Print | Product List | Glossary Off
Versions: 1 2 3 4 5 6 7 8 9 10 11 12 13 14 15 16 17 18 19 20 21 22 23 24 25 26 27 28 29 30 31 32 33 34 35 36 37 38 39 40 41 42 43 44 45 46 47 48 49 50

000
ASUS45 KBOU 010910
RWRCO

WEATHER ROUNDUP FOR COLORADO
NATIONAL WEATHER SERVICE DENVER/BOULDER CO
300 AM MDT WED JUL 01 2015

NOTE: "FAIR" INDICATES FEW OR NO CLOUDS BELOW 12000 FEET WITH NO
SIGNIFICANT WEATHER AND/OR OBSTRUCTIONS TO VISIBILITY.

COZ001>005-013-030-031-011000-
...NORTHWEST COLORADO...

CITY           SKY/WX    TMP DP  RH WIND       PRES   REMARKS
CRAIG          CLOUDY    55  48  77 CALM      30.21S
HAYDEN         CLOUDY    59  46  63 E10       30.23S
MEEKER         MOCLDY    57  47  69 NE3       30.23S
MOUNT WERNER   NOT AVBL
STEAMBOAT SPGS CLOUDY    55  48  77 CALM      30.26S
WALDEN         PTCLDY    50  46  87 E6        30.36F
$$

COZ006>008-011-011000-
...WEST CENTRAL VALLEYS...

CITY           SKY/WX    TMP DP  RH WIND       PRES   REMARKS
GRAND JUNCTION PTCLDY    70  46  42 E5        30.06R
MONTROSE       PTCLDY    68  46  45 SE7       30.15F
EAGLE          CLEAR     57  50  77 SE3       30.27S
RIFLE          MOCLDY    67  44  43 CALM      30.14S
DELTA          PTCLDY    70  44  39 E6        30.09F
NUCLA          PTCLDY    68  45  42 SE8       30.18F
$$

COZ017>023-064>068-011000-
...SOUTHWEST COLORADO...

CITY           SKY/WX    TMP DP  RH WIND       PRES   REMARKS
DURANGO        CLOUDY    70  50  49 E8        30.23R
CORTEZ         CLEAR     67  47  48 N6        30.13R
PAGOSA SPRINGS CLOUDY    61  56  83 CALM      30.34R
TELLURIDE      CLOUDY    62  41  46 SE6       30.44R
WOLF CREEK PAS NOT AVBL
$$

COZ009-010-012-014-032>034-037-058>063-011000-
...CENTRAL COLORADO...

CITY           SKY/WX    TMP DP  RH WIND       PRES   REMARKS
ASPEN          CLEAR     56  45  66 SW7       30.32F
BUENA VISTA    PTCLDY    55  51  85 W6        30.36F
COPPER MTN     CLEAR     54  37  54 S16G22    30.67F
BERTHOUD PASS  FAIR      45  34  65 NW18G26   30.69F
COTTONWOOD PAS NOT AVBL
GUNNISON       MOCLDY    61  45  55 N8        30.35S
KREMMLING      PTCLDY    54  45  71 CALM      30.34R
LEADVILLE      CLEAR     47  39  74 NE3       30.50F
MONARCH PASS   MOCLDY    52  36  54 E3        30.77S
SALIDA         PTCLDY    59  53  80 W3        30.40S
SUNLIGHT       PTCLDY    61  37  41 CALM      30.59S
WILKERSON PASS PTCLDY    52  37  58 W7        30.62F
$$

COZ069>075-011000-
...SAN LUIS VALLEY/SANGRE DE CRISTO MOUNTAINS...

CITY           SKY/WX    TMP DP  RH WIND       PRES   REMARKS
ALAMOSA        CLOUDY    62  51  67 S8        30.33R
LA VETA PASS   CLOUDY    54  43  66 MISG      30.52S
SAGUACHE       CLOUDY    59  46  63 NW10      30.35S
$$

COZ035-036-038>040-011000-
...NORTHERN COLORADO FRONT RANGE...

CITY           SKY/WX    TMP DP  RH WIND       PRES   REMARKS
DENVER INTL AP MOCLDY    66  54  65 W3        30.11S
DMNS CITY PARK   N/A     69  55  61 SE8       30.11F
AURORA         MOCLDY    65  55  69 SW6       30.14S
FRONT RANGE AP NOT AVBL
ERIE MUNI ARPT PTCLDY    63  56  79 S5        30.09F
BOULDER MUN AP PTCLDY    68  52  56 S3        30.09F
CENTENNIAL     PTCLDY    65  54  67 S5        30.15F
BROOMFIELD     PTCLDY    63  54  72 W7        30.13F
FORT COLLINS   PTCLDY    64  55  72 CALM      30.08F
LONGMONT       PTCLDY    64  55  74 CALM      30.10F
$$

COZ041-046-047-076>085-087-088-011000-
...PIKES PEAK/PALMER DIVIDE AND SOUTHERN FOOTHILLS...

CITY           SKY/WX    TMP DP  RH WIND       PRES   REMARKS
COLO. SPRINGS  MOCLDY    67  51  56 N12       30.17F
A. F. ACADEMY  PTCLDY    62  49  64 N8        30.19F
ELLICOTT       MOCLDY   N/A N/A N/A NW5       30.15F
FALCON         MOCLDY    64  48  56 N3        30.23F
FORT CARSON    MOCLDY    66  52  60 S5        30.14S
LIMON          PTCLDY    63  55  75 NW9       30.09S
MONUMENT HILL  PTCLDY    59  50  72 MISG      30.24F
TRINIDAD       CLOUDY    76  47  35 W13       30.15S
$$

COZ042>045-048>051-090-091-011000-
...NORTHEAST COLORADO...

CITY           SKY/WX    TMP DP  RH WIND       PRES   REMARKS
GREELEY ARPT   PTCLDY    64  55  72 S7        30.06S
AKRON          CLOUDY    68  53  58 NW12      30.01R
BURLINGTON     CLOUDY    71  54  54 W13       29.97F
WRAY           CLOUDY    74  54  48 W3        29.92R
STERLING       CLOUDY    64  57  77 NW10        N/A
HOLYOKE        CLOUDY    79  54  41 N15       29.91S
FORT MORGAN    CLOUDY    62  54  75 W12       30.04R
$$

COZ086-089-092>099-011000-
...SOUTHEAST COLORADO...

CITY           SKY/WX    TMP DP  RH WIND       PRES   REMARKS
PUEBLO         MOCLDY    75  53  46 NW5       30.06F
LA JUNTA       MOCLDY    74  53  48 N6        30.01F
LAMAR          MOCLDY    73  54  51 N8        29.95F
SPRINGFIELD      N/A     72  50  45 SW14      30.02F
$$


USA.gov is the U.S. government's official web portal to all federal, state and local government web resources and services.